Content
SEND FEEDBACK

Daily
Averages
Monthly
Summary
Cuba

GUANTANAMO BAY, CUBA


Home > Caribbean > Cuba
Elevation: 56 feet     Latitude: 19 54N     Longitude: 075 13W

WEATHER
 
SELECT A DAY
Number of Records: 123,309;   Date Range: 6/30/96 - 7/27/14
 
SHARE

PRINT THIS DATA

[ ← Previous Day ]
WEATHER ALMANAC - JANUARY 31, 2013
[ Next Day → ]
[ °C ]   °F
Weather ElementAverageHighLow
Temperature76.5 °F84 °F (1:56 pm)68 °F (6:56 am)
Dewpoint68.4 °F71.1 °F (11:56 am)66 °F (1:56 am)
Humidity77 %96 % (3:56 am)58 % (9:56 am)
Barometer30.04 in30.09 in (8:56 am)30.01 in (3:56 am)
Wind Speed7.9 mph16.1 mph (12:56 pm)
Weather ElementAverage
Visibility6.2 mi
Wind DirectionS (180.4 °)

Weather ElementTotal
Precipitation---
Cooling Degree Days11 (Base 65)
Growing Degree Days26 (Base 50)
Averaged from 23 records on January 31, 2013
WEATHER CONDITIONS BREAKOUT
WIND DIRECTION BREAKOUT
WEATHER BY HOUR - JANUARY 31, 2013
[ °C ]   °F
Local TimeTemperatureDewpointHumidityBarometerVisibilityWind DirectionWind SpeedGust SpeedPrecipitationEventsConditions
1:56 AM69.1 °F66.0 °F90 %30.03 in6.2 miNorth (350°)4.6 mphPartly Cloudy
2:56 AM69.1 °F66.9 °F93 %30.02 in6.2 miNorth (360°)6.9 mphPartly Cloudy
3:56 AM69.1 °F68.0 °F96 %30.01 in6.2 miNorth (350°)9.2 mphPartly Cloudy
4:56 AM69.1 °F66.9 °F93 %30.02 in6.2 miNNE (20°)8.1 mphPartly Cloudy
5:56 AM69.1 °F66.0 °F90 %30.03 in6.2 miNorth (10°)4.6 mphScattered Clouds
6:56 AM68.0 °F66.0 °F93 %30.05 in6.2 miNorth (350°)8.1 mphScattered Clouds
7:56 AM71.1 °F66.9 °F87 %30.08 in6.2 miNorth (360°)4.6 mphScattered Clouds
8:56 AM77.0 °F69.1 °F76 %30.09 in6.2 miNorth (360°)5.8 mphScattered Clouds
9:56 AM82.9 °F66.9 °F58 %30.09 in6.2 miCalmScattered Clouds
10:56 AM82.0 °F69.1 °F65 %30.08 in6.2 miSE (140°)11.5 mphPartly Cloudy
11:56 AM82.9 °F71.1 °F67 %30.06 in6.2 miSE (140°)12.7 mphPartly Cloudy
12:56 PM82.9 °F71.1 °F67 %30.04 in6.2 miSE (130°)16.1 mphPartly Cloudy
1:56 PM84.0 °F71.1 °F65 %30.02 in6.2 miSE (140°)12.7 mphScattered Clouds
2:56 PM82.9 °F71.1 °F67 %30.01 in6.2 miSE (140°)12.7 mphScattered Clouds
3:56 PM82.9 °F70.0 °F65 %30.01 in6.2 miSE (140°)11.5 mphMostly Cloudy
4:56 PM81.0 °F69.1 °F67 %30.01 in6.2 miSE (130°)10.4 mphMostly Cloudy
5:56 PM79.0 °F69.1 °F72 %30.02 in6.2 miESE (110°)9.2 mphMostly Cloudy
6:56 PM79.0 °F69.1 °F72 %30.04 in6.2 miEast (100°)8.1 mphMostly Cloudy
7:56 PM79.0 °F69.1 °F72 %30.06 in6.2 miEast (90°)3.5 mphMostly Cloudy
8:56 PM77.0 °F70.0 °F79 %30.06 in6.2 miNNE (20°)3.5 mphPartly Cloudy
9:56 PM75.9 °F66.9 °F74 %30.06 in6.2 miNNE (30°)6.9 mphPartly Cloudy
10:56 PM73.0 °F66.9 °F81 %30.07 in6.2 miNNW (330°)5.8 mphPartly Cloudy
11:56 PM73.0 °F66.9 °F81 %30.06 in6.2 miNorth (350°)5.8 mphPartly Cloudy
Hourly data recorded from MUGM, located miles away from Guantanamo Bay, Cuba







STORIES FROM OUR PARTNERS